Location: Bijele Vode
(45.2833°N, 16.2000°E)
Time: 20:09:21
(UTC+00:00)

CZ-2C R/B - Pass Details

Date: 18 September 2020
Orbit: 391 x 588 km, 35.0° (Epoch: 27 October)

Event Time Altitude Azimuth Distance (km) Brightness Sun altitude
Rises 17:22:08 0° 224° (SW) 2,485 5.2 -4.7°
Reaches altitude 10° 17:25:30 10° 191° (SSW) 1,558 3.7 -5.3°
Maximum altitude 17:26:53 12° 168° (SSE) 1,430 3.3 -5.6°
Drops below altitude 10° 17:28:13 10° 145° (SE) 1,520 3.2 -5.8°
Enters shadow 17:29:49 - 125° (SE) 1,862 3.5 -6.1°
